ELECTRON R/B, 100747

Orbit data source: Space-Track

ELECTRON R/B, 100747 is space debris in LEO originally from a launch on Sat, 19 Sep 2026 UTC launched from the Rocket Lab Launch Complex (RLLC). Debris objects in space refer to the collection of defunct objects orbiting the Earth. Examples of debris include non-operational satellites, rocket bodies, and fragments generated from explosions, collisions, or faulty payload assembly.

Loading next visibility...
Identifier
100747, 2026-217B
Orbit
LEO
Country
Flag of USUS
Related business
Manufacturer
Rocket Lab
Mission
Spacecraft
Bus & Motor
ELECTRON ST2, Unknown motor
Mass
250 kg wet, ~250 kg dry
Launch date (UTC)
2026-09-19 (2 days ago)
Launch vehicle
Unknown
Launch site
Rocket Lab Launch Complex (RLLC)
Object type
Payload
Rocket body
Debris
Shape & HBR
CYL, 1.2 m
Radar Cross Section
RCS unknown

Expand to show TLE details & history
Last TLE update: 9 hours ago

TLE from 9 hours ago
0 ELECTRON R/B
1 A0747U 26217B   26264.57771848  .02142185  40551-5  11682-2 0  9996
2 A0747  38.1555 302.9446 0261091 288.8603  68.4042 15.74311532   397
Epoch: 2026-09-21T13:51Z
TLE epoch observation values (Epoch: 2026-09-21T13:51:54.876Z)
Latitude
Longitude
94.51041°
Altitude
285.228 km
Speed
7.773 km/s
True Right ascension
20h 11m 46s
True Declination
0° 00' 00"
Sunlit
Object was in full shadow at epoch
Visualization orbit readout
Latitude
Unknown
Longitude
Unknown
Altitude
Unknown
Speed
Unknown
Apparent Right ascension
Unknown
Apparent Declination
Unknown
Sunlit
N/A
Visualization observer readout
Local Sidereal Time
15:35:38
Azimuth
Unknown
Elevation
Unknown
Doppler factor
Unknown
Orbital elements
Apogee altitude
525.048 km
Perigee altitude
173.749 km
Semi-major axis
6,727.536 km
Eccentricity
0.02611
Inclination
38.1555°
RAAN
302.9446°
Arg. of periapsis
288.8603°
True anomaly
71.21873°
Mean anomaly
68.4042°
Eccentric anomaly
69.8082°
Mean motion
3.93332 °/min
Orbital period
91.53 mins
BSTAR
0.0011682
Loading maneuver chart data...
Computing Atmospheric mass density...
Loading historical data...
Loading historical data...
Loading historical data...
Loading historical data...
Loading historical data...
Loading historical data...
Loading historical data...
Other satellites on launch #217 in the year 2026 (2026-09-19 UTC)

Documentation

Showing up to 5 results
|